| time (UTC) | temp F | wind direction | speed knots | gust knots | rain 1hr in | rain 24hr in | rain mn in | humidity % | barometer mb |
| 20260510233516 | 56 | 0 | 0.9 | 6.1 | 0.00 | 0.00 | 0.00 | 36 | 1018.8 |
| 20260510233030 | 56 | 0 | 1.7 | 7.8 | 0.00 | 0.00 | 0.00 | 36 | 1018.7 |
| 20260510232514 | 55 | 284 | 0.9 | 11.3 | 0.00 | 0.00 | 0.00 | 36 | 1018.7 |
| 20260510232013 | 55 | 273 | 2.6 | 11.3 | 0.00 | 0.00 | 0.00 | 36 | 1018.7 |
| 20260510231535 | 55 | 281 | 4.3 | 11.3 | 0.00 | 0.00 | 0.00 | 36 | 1018.7 |
| 20260510231014 | 55 | 258 | 2.6 | 9.6 | 0.00 | 0.00 | 0.00 | 36 | 1018.8 |
| 20260510230515 | 55 | 303 | 1.7 | 9.6 | 0.00 | 0.00 | 0.00 | 36 | 1018.8 |
| 20260510230031 | 55 | 320 | 0.9 | 6.1 | 0.00 | 0.00 | 0.00 | 36 | 1018.8 |
| 20260510225514 | 56 | 238 | 1.7 | 11.3 | 0.00 | 0.00 | 0.00 | 36 | 1018.8 |
| 20260510225014 | 56 | 0 | 2.6 | 11.3 | 0.00 | 0.00 | 0.00 | 35 | 1018.7 |
| 20260510224536 | 56 | 304 | 2.6 | 7.0 | 0.00 | 0.00 | 0.00 | 35 | 1018.8 |
| 20260510224015 | 56 | 290 | 2.6 | 6.1 | 0.00 | 0.00 | 0.00 | 35 | 1018.7 |
| 20260510223514 | 56 | 300 | 0.0 | 12.2 | 0.00 | 0.00 | 0.00 | 35 | 1018.8 |
| 20260510223032 | 56 | 269 | 3.5 | 12.2 | 0.00 | 0.00 | 0.00 | 34 | 1018.6 |
| 20260510222520 | 56 | 236 | 2.6 | 9.6 | 0.00 | 0.00 | 0.00 | 34 | 1018.5 |
| 20260510222019 | 56 | 248 | 1.7 | 9.6 | 0.00 | 0.00 | 0.00 | 34 | 1018.6 |
| 20260510221533 | 56 | 304 | 0.9 | 9.6 | 0.00 | 0.00 | 0.00 | 35 | 1018.5 |
| 20260510221019 | 56 | 307 | 1.7 | 7.8 | 0.00 | 0.00 | 0.00 | 34 | 1018.4 |
| 20260510220516 | 56 | 0 | 0.9 | 6.1 | 0.00 | 0.00 | 0.00 | 35 | 1018.5 |
| 20260510220030 | 56 | 0 | 0.0 | 6.1 | 0.00 | 0.00 | 0.00 | 34 | 1018.4 |
| 20260510215517 | 56 | 253 | 0.9 | 7.0 | 0.00 | 0.00 | 0.00 | 33 | 1018.4 |
| 20260510215013 | 56 | 0 | 1.7 | 9.6 | 0.00 | 0.00 | 0.00 | 34 | 1018.4 |
| 20260510214529 | 56 | 307 | 0.0 | 9.6 | 0.00 | 0.00 | 0.00 | 34 | 1018.3 |
| 20260510214021 | 56 | 206 | 3.5 | 10.4 | 0.00 | 0.00 | 0.00 | 33 | 1018.2 |
| 20260510213517 | 56 | 296 | 3.5 | 10.4 | 0.00 | 0.00 | 0.00 | 32 | 1018.2 |
| 20260510213029 | 57 | 307 | 4.3 | 8.7 | 0.00 | 0.00 | 0.00 | 32 | 1018.1 |
| 20260510212513 | 57 | 281 | 1.7 | 10.4 | 0.00 | 0.00 | 0.00 | 33 | 1018.0 |
| 20260510212018 | 56 | 0 | 1.7 | 10.4 | 0.00 | 0.00 | 0.00 | 33 | 1018.0 |
| 20260510211533 | 56 | 222 | 4.3 | 12.2 | 0.00 | 0.00 | 0.00 | 32 | 1017.9 |
| 20260510211016 | 56 | 234 | 3.5 | 12.2 | 0.00 | 0.00 | 0.00 | 32 | 1018.0 |
| 20260510210515 | 57 | 257 | 0.0 | 6.1 | 0.00 | 0.00 | 0.00 | 34 | 1017.8 |
| 20260510210029 | 56 | 0 | 1.7 | 6.1 | 0.00 | 0.00 | 0.00 | 33 | 1017.9 |
| 20260510205517 | 56 | 0 | 1.7 | 7.0 | 0.00 | 0.00 | 0.00 | 33 | 1017.9 |
| 20260510205015 | 56 | 0 | 2.6 | 9.6 | 0.00 | 0.00 | 0.00 | 32 | 1017.9 |
| 20260510204532 | 56 | 296 | 1.7 | 11.3 | 0.00 | 0.00 | 0.00 | 31 | 1018.0 |
| 20260510204014 | 57 | 276 | 4.3 | 11.3 | 0.00 | 0.00 | 0.00 | 31 | 1018.0 |
| 20260510203515 | 57 | 238 | 2.6 | 8.7 | 0.00 | 0.00 | 0.00 | 32 | 1018.1 |
| 20260510203031 | 56 | 0 | 0.0 | 9.6 | 0.00 | 0.00 | 0.00 | 32 | 1018.1 |
| 20260510202514 | 56 | 0 | 3.5 | 10.4 | 0.00 | 0.00 | 0.00 | 32 | 1018.2 |
| 20260510202015 | 57 | 257 | 2.6 | 10.4 | 0.00 | 0.00 | 0.00 | 32 | 1018.1 |
| 20260510201531 | 56 | 231 | 1.7 | 8.7 | 0.00 | 0.00 | 0.00 | 32 | 1018.1 |
| 20260510201014 | 56 | 292 | 2.6 | 8.7 | 0.00 | 0.00 | 0.00 | 32 | 1018.1 |
| 20260510200515 | 56 | 252 | 1.7 | 7.0 | 0.00 | 0.00 | 0.00 | 32 | 1018.2 |
| 20260510200030 | 56 | 266 | 2.6 | 7.0 | 0.00 | 0.00 | 0.00 | 33 | 1018.2 |
| 20260510195515 | 56 | 255 | 1.7 | 7.0 | 0.00 | 0.00 | 0.00 | 33 | 1018.3 |
| 20260510195015 | 56 | 297 | 1.7 | 10.4 | 0.00 | 0.00 | 0.00 | 33 | 1018.3 |
| 20260510194531 | 56 | 300 | 4.3 | 10.4 | 0.00 | 0.00 | 0.00 | 33 | 1018.4 |
| 20260510194014 | 56 | 338 | 0.9 | 6.1 | 0.00 | 0.00 | 0.00 | 33 | 1018.2 |
| 20260510193516 | 55 | 0 | 1.7 | 8.7 | 0.00 | 0.00 | 0.00 | 34 | 1018.3 |
| 20260510193029 | 55 | 0 | 2.6 | 10.4 | 0.00 | 0.00 | 0.00 | 34 | 1018.4 |
| 20260510192513 | 55 | 252 | 0.9 | 10.4 | 0.00 | 0.00 | 0.00 | 35 | 1018.5 |
| 20260510192014 | 56 | 297 | 3.5 | 10.4 | 0.00 | 0.00 | 0.00 | 33 | 1018.5 |
| 20260510191536 | 56 | 0 | 0.0 | 6.1 | 0.00 | 0.00 | 0.00 | 34 | 1018.5 |
| 20260510191013 | 56 | 266 | 0.0 | 8.7 | 0.00 | 0.00 | 0.00 | 32 | 1018.5 |
| 20260510190514 | 56 | 298 | 3.5 | 8.7 | 0.00 | 0.00 | 0.00 | 33 | 1018.5 |
| 20260510190045 | 56 | 326 | 0.0 | 14.8 | 0.00 | 0.00 | 0.00 | 36 | 1018.4 |
| 20260510185517 | 55 | 0 | 0.0 | 14.8 | 0.00 | 0.11 | 0.00 | 35 | 1018.3 |
| 20260510185015 | 55 | 280 | 5.2 | 14.8 | 0.00 | 0.11 | 0.00 | 33 | 1018.4 |
| 20260510184534 | 56 | 297 | 0.9 | 7.8 | 0.00 | 0.11 | 0.00 | 33 | 1018.3 |
| 20260510184016 | 56 | 0 | 0.0 | 11.3 | 0.00 | 0.11 | 0.00 | 35 | 1018.3 |
| 20260510183516 | 56 | 0 | 2.6 | 11.3 | 0.00 | 0.11 | 0.00 | 33 | 1018.3 |
| 20260510183032 | 57 | 195 | 3.5 | 10.4 | 0.00 | 0.11 | 0.00 | 31 | 1018.1 |
| 20260510182519 | 56 | 252 | 1.7 | 8.7 | 0.00 | 0.11 | 0.00 | 33 | 1018.0 |
| 20260510182014 | 55 | 305 | 0.9 | 7.0 | 0.00 | 0.11 | 0.00 | 32 | 1018.0 |
| 20260510181544 | 55 | 269 | 2.6 | 10.4 | 0.00 | 0.11 | 0.00 | 32 | 1018.1 |
| 20260510181016 | 56 | 241 | 4.3 | 10.4 | 0.00 | 0.11 | 0.00 | 31 | 1018.0 |
| 20260510180515 | 56 | 277 | 3.5 | 9.6 | 0.00 | 0.11 | 0.00 | 31 | 1017.9 |
| 20260510180038 | 55 | 0 | 0.0 | 6.1 | 0.00 | 0.11 | 0.00 | 35 | 1017.8 |
| 20260510175515 | 55 | 295 | 2.6 | 9.6 | 0.00 | 0.11 | 0.00 | 32 | 1017.8 |
| 20260510175015 | 55 | 287 | 2.6 | 11.3 | 0.00 | 0.11 | 0.00 | 32 | 1017.8 |
| 20260510174533 | 55 | 286 | 1.7 | 12.2 | 0.00 | 0.11 | 0.00 | 33 | 1017.7 |
| 20260510174015 | 55 | 261 | 2.6 | 13.0 | 0.00 | 0.11 | 0.00 | 32 | 1017.9 |
| 20260510173514 | 54 | 245 | 5.2 | 13.0 | 0.00 | 0.11 | 0.00 | 35 | 1017.8 |
| 20260510173030 | 55 | 357 | 2.6 | 13.0 | 0.00 | 0.11 | 0.00 | 35 | 1017.8 |
| 20260510172513 | 54 | 0 | 4.3 | 13.0 | 0.00 | 0.11 | 0.00 | 34 | 1018.0 |
| 20260510172018 | 54 | 281 | 0.0 | 5.2 | 0.00 | 0.11 | 0.00 | 34 | 1017.9 |
| 20260510171530 | 55 | 0 | 0.9 | 11.3 | 0.00 | 0.11 | 0.00 | 32 | 1018.0 |
| 20260510171016 | 55 | 318 | 3.5 | 11.3 | 0.00 | 0.11 | 0.00 | 33 | 1018.2 |
| 20260510170514 | 55 | 305 | 2.6 | 12.2 | 0.00 | 0.11 | 0.00 | 34 | 1018.1 |
| 20260510170031 | 55 | 34 | 0.9 | 12.2 | 0.00 | 0.11 | 0.00 | 34 | 1018.2 |
| 20260510165517 | 54 | 264 | 3.5 | 12.2 | 0.00 | 0.11 | 0.00 | 34 | 1018.1 |
| 20260510165016 | 54 | 0 | 0.9 | 9.6 | 0.00 | 0.11 | 0.00 | 34 | 1018.0 |
| 20260510164531 | 54 | 0 | 0.0 | 7.8 | 0.00 | 0.11 | 0.00 | 36 | 1018.1 |
| 20260510164014 | 54 | 327 | 0.9 | 7.8 | 0.00 | 0.11 | 0.00 | 37 | 1018.1 |
| 20260510163515 | 53 | 269 | 3.5 | 7.8 | 0.00 | 0.11 | 0.00 | 35 | 1018.1 |
| 20260510163032 | 53 | 356 | 1.7 | 7.8 | 0.00 | 0.11 | 0.00 | 36 | 1018.0 |
| 20260510162515 | 53 | 0 | 0.9 | 9.6 | 0.00 | 0.11 | 0.00 | 37 | 1018.1 |
| 20260510162013 | 54 | 307 | 2.6 | 12.2 | 0.00 | 0.11 | 0.00 | 35 | 1018.1 |
| 20260510161532 | 53 | 261 | 2.6 | 12.2 | 0.00 | 0.11 | 0.00 | 35 | 1018.1 |
| 20260510161018 | 53 | 13 | 2.6 | 7.0 | 0.00 | 0.11 | 0.00 | 36 | 1017.9 |
| 20260510160514 | 52 | 330 | 2.6 | 9.6 | 0.00 | 0.11 | 0.00 | 36 | 1018.0 |
| 20260510160038 | 53 | 354 | 2.6 | 9.6 | 0.00 | 0.11 | 0.00 | 37 | 1017.9 |
| 20260510155518 | 52 | 294 | 2.6 | 10.4 | 0.00 | 0.11 | 0.00 | 36 | 1017.9 |
| 20260510155016 | 52 | 266 | 2.6 | 10.4 | 0.00 | 0.11 | 0.00 | 37 | 1017.9 |
| 20260510154547 | 53 | 319 | 2.6 | 9.6 | 0.00 | 0.11 | 0.00 | 35 | 1017.9 |
| 20260510154017 | 53 | 295 | 2.6 | 8.7 | 0.00 | 0.11 | 0.00 | 36 | 1017.8 |
| 20260510153515 | 53 | 234 | 0.9 | 8.7 | 0.00 | 0.11 | 0.00 | 37 | 1017.7 |
| 20260510153043 | 52 | 270 | 3.5 | 8.7 | 0.00 | 0.11 | 0.00 | 40 | 1017.6 |
| 20260510152515 | 52 | 0 | 0.0 | 6.1 | 0.00 | 0.11 | 0.00 | 39 | 1017.7 |
| 20260510152017 | 52 | 323 | 2.6 | 7.8 | 0.00 | 0.11 | 0.00 | 40 | 1017.6 |
| 20260510151532 | 52 | 293 | 0.0 | 7.8 | 0.00 | 0.11 | 0.00 | 41 | 1017.5 |
| 20260510151017 | 52 | 283 | 2.6 | 7.8 | 0.00 | 0.11 | 0.00 | 39 | 1017.6 |
| 20260510150525 | 52 | 0 | 0.9 | 7.8 | 0.00 | 0.11 | 0.00 | 40 | 1017.4 |
| 20260510150030 | 51 | 0 | 0.9 | 7.8 | 0.00 | 0.11 | 0.00 | 41 | 1017.3 |
| 20260510145515 | 51 | 33 | 0.9 | 7.8 | 0.00 | 0.11 | 0.00 | 39 | 1017.3 |
| 20260510145016 | 52 | 309 | 1.7 | 7.8 | 0.00 | 0.11 | 0.00 | 40 | 1017.3 |
| 20260510144545 | 51 | 0 | 0.0 | 8.7 | 0.00 | 0.11 | 0.00 | 41 | 1017.3 |
| 20260510144016 | 51 | 298 | 2.6 | 8.7 | 0.00 | 0.11 | 0.00 | 39 | 1017.2 |
| 20260510143518 | 52 | 340 | 1.7 | 7.0 | 0.00 | 0.11 | 0.00 | 39 | 1017.2 |
| 20260510143030 | 52 | 0 | 0.0 | 6.1 | 0.00 | 0.11 | 0.00 | 41 | 1017.1 |
| 20260510142525 | 51 | 0 | 0.0 | 6.1 | 0.00 | 0.11 | 0.00 | 43 | 1017.1 |
| 20260510142013 | 50 | 226 | 1.7 | 8.7 | 0.00 | 0.11 | 0.00 | 42 | 1017.0 |
| 20260510141533 | 49 | 0 | 1.7 | 8.7 | 0.00 | 0.11 | 0.00 | 42 | 1017.0 |
| 20260510141014 | 49 | 295 | 1.7 | 6.1 | 0.00 | 0.11 | 0.00 | 43 | 1017.0 |
| 20260510140515 | 49 | 0 | 2.6 | 6.1 | 0.00 | 0.11 | 0.00 | 43 | 1016.9 |
| 20260510140032 | 49 | 307 | 0.9 | 7.0 | 0.00 | 0.11 | 0.00 | 42 | 1016.8 |
| 20260510135516 | 49 | 0 | 0.9 | 7.0 | 0.00 | 0.11 | 0.00 | 43 | 1016.9 |
| 20260510135016 | 49 | 358 | 3.5 | 7.0 | 0.00 | 0.11 | 0.00 | 43 | 1016.8 |
| 20260510134532 | 49 | 313 | 1.7 | 6.1 | 0.00 | 0.11 | 0.00 | 44 | 1016.8 |
| 20260510134019 | 49 | 0 | 1.7 | 7.0 | 0.00 | 0.11 | 0.00 | 44 | 1016.8 |
| 20260510133515 | 48 | 0 | 0.0 | 7.0 | 0.00 | 0.11 | 0.00 | 45 | 1016.8 |
| 20260510133032 | 48 | 259 | 1.7 | 7.0 | 0.00 | 0.11 | 0.00 | 44 | 1016.7 |
| 20260510132513 | 48 | 346 | 0.0 | 5.2 | 0.00 | 0.11 | 0.00 | 47 | 1016.7 |
| 20260510132016 | 48 | 294 | 1.7 | 5.2 | 0.00 | 0.11 | 0.00 | 47 | 1016.7 |
| 20260510131533 | 48 | 336 | 0.0 | 5.2 | 0.00 | 0.11 | 0.00 | 50 | 1016.6 |
| 20260510131014 | 47 | 330 | 0.9 | 5.2 | 0.00 | 0.11 | 0.00 | 51 | 1016.5 |
| 20260510130514 | 47 | 0 | 0.9 | 6.1 | 0.00 | 0.11 | 0.00 | 52 | 1016.5 |
| 20260510130029 | 47 | 340 | 1.7 | 6.1 | 0.00 | 0.11 | 0.00 | 52 | 1016.4 |
| 20260510125513 | 46 | 322 | 3.5 | 6.1 | 0.00 | 0.11 | 0.00 | 52 | 1016.4 |
| 20260510125015 | 46 | 351 | 1.7 | 6.1 | 0.00 | 0.11 | 0.00 | 52 | 1016.4 |
| 20260510124534 | 46 | 314 | 1.7 | 5.2 | 0.00 | 0.11 | 0.00 | 53 | 1016.4 |
| 20260510124018 | 46 | 330 | 0.9 | 5.2 | 0.00 | 0.11 | 0.00 | 55 | 1016.2 |
| 20260510123520 | 46 | 281 | 0.9 | 5.2 | 0.00 | 0.11 | 0.00 | 55 | 1016.2 |
| 20260510123030 | 45 | 310 | 1.7 | 4.3 | 0.00 | 0.11 | 0.00 | 56 | 1016.1 |
| 20260510122514 | 45 | 347 | 0.9 | 4.3 | 0.00 | 0.11 | 0.00 | 57 | 1016.1 |
| 20260510122015 | 45 | 322 | 1.7 | 4.3 | 0.00 | 0.11 | 0.00 | 58 | 1016.1 |
| 20260510121531 | 45 | 319 | 1.7 | 4.3 | 0.00 | 0.11 | 0.00 | 59 | 1016.1 |
| 20260510121015 | 45 | 277 | 0.0 | 3.5 | 0.00 | 0.11 | 0.00 | 59 | 1016.0 |
| 20260510120514 | 44 | 0 | 0.0 | 4.3 | 0.00 | 0.11 | 0.00 | 60 | 1015.9 |
| 20260510120032 | 44 | 0 | 0.0 | 4.3 | 0.00 | 0.11 | 0.00 | 61 | 1015.8 |
| 20260510115515 | 44 | 0 | 0.9 | 4.3 | 0.00 | 0.11 | 0.00 | 61 | 1015.8 |
| 20260510115013 | 43 | 295 | 0.9 | 3.5 | 0.00 | 0.11 | 0.00 | 62 | 1015.7 |
| 20260510114530 | 43 | 288 | 0.0 | 2.6 | 0.00 | 0.11 | 0.00 | 63 | 1015.7 |
| 20260510114015 | 43 | 297 | 0.0 | 3.5 | 0.00 | 0.11 | 0.00 | 66 | 1015.6 |
| 20260510113515 | 42 | 0 | 0.0 | 4.3 | 0.00 | 0.11 | 0.00 | 65 | 1015.6 |
| 20260510113030 | 42 | 301 | 1.7 | 4.3 | 0.00 | 0.11 | 0.00 | 65 | 1015.5 |
| 20260510112518 | 42 | 294 | 0.0 | 2.6 | 0.00 | 0.11 | 0.00 | 66 | 1015.4 |
| 20260510112016 | 42 | 0 | 0.0 | 0.9 | 0.00 | 0.11 | 0.00 | 67 | 1015.4 |
| 20260510111530 | 42 | 0 | 0.0 | 0.9 | 0.00 | 0.11 | 0.00 | 67 | 1015.3 |
| 20260510111018 | 41 | 307 | 0.0 | 0.9 | 0.00 | 0.11 | 0.00 | 67 | 1015.2 |
| 20260510110515 | 41 | 0 | 0.0 | 0.0 | 0.00 | 0.11 | 0.00 | 68 | 1015.1 |
| 20260510110032 | 41 | 0 | 0.0 | 1.7 | 0.00 | 0.11 | 0.00 | 68 | 1014.9 |
| 20260510105515 | 40 | 0 | 0.0 | 1.7 | 0.00 | 0.11 | 0.00 | 69 | 1014.9 |
| 20260510105016 | 40 | 284 | 0.0 | 1.7 | 0.00 | 0.11 | 0.00 | 69 | 1014.9 |
| 20260510104536 | 40 | 0 | 0.0 | 0.9 | 0.00 | 0.11 | 0.00 | 70 | 1014.8 |
| 20260510104016 | 40 | 0 | 0.0 | 0.9 | 0.00 | 0.11 | 0.00 | 70 | 1014.7 |
| 20260510103515 | 40 | 0 | 0.0 | 1.7 | 0.00 | 0.11 | 0.00 | 70 | 1014.6 |
| 20260510103031 | 40 | 0 | 0.0 | 2.6 | 0.00 | 0.11 | 0.00 | 70 | 1014.6 |
| 20260510102515 | 40 | 0 | 0.0 | 2.6 | 0.00 | 0.11 | 0.00 | 70 | 1014.6 |
| 20260510102019 | 40 | 0 | 0.0 | 1.7 | 0.00 | 0.11 | 0.00 | 70 | 1014.6 |
| 20260510101532 | 40 | 0 | 0.0 | 1.7 | 0.00 | 0.11 | 0.00 | 70 | 1014.6 |
| 20260510101018 | 39 | 0 | 0.0 | 1.7 | 0.00 | 0.11 | 0.00 | 71 | 1014.5 |
| 20260510100516 | 39 | 0 | 0.0 | 1.7 | 0.00 | 0.11 | 0.00 | 71 | 1014.4 |
| 20260510100030 | 40 | 0 | 0.0 | 0.9 | 0.00 | 0.11 | 0.00 | 73 | 1014.4 |
| 20260510095518 | 40 | 0 | 0.0 | 0.9 | 0.00 | 0.11 | 0.00 | 73 | 1014.4 |
| 20260510095018 | 40 | 0 | 0.0 | 0.0 | 0.00 | 0.11 | 0.00 | 73 | 1014.3 |
| 20260510094532 | 40 | 0 | 0.0 | 0.0 | 0.00 | 0.11 | 0.00 | 74 | 1014.2 |
| 20260510094015 | 40 | 0 | 0.0 | 0.0 | 0.00 | 0.11 | 0.00 | 73 | 1014.0 |
| 20260510093519 | 40 | 0 | 0.0 | 0.0 | 0.00 | 0.11 | 0.00 | 73 | 1014.1 |
| 20260510093029 | 40 | 0 | 0.0 | 0.0 | 0.00 | 0.11 | 0.00 | 73 | 1014.0 |
| 20260510092515 | 40 | 0 | 0.0 | 0.0 | 0.00 | 0.11 | 0.00 | 73 | 1014.0 |
| 20260510092017 | 40 | 0 | 0.0 | 0.0 | 0.00 | 0.11 | 0.00 | 73 | 1013.8 |
| 20260510091532 | 41 | 0 | 0.0 | 0.0 | 0.00 | 0.11 | 0.00 | 72 | 1013.8 |
| 20260510091013 | 41 | 0 | 0.0 | 0.0 | 0.00 | 0.11 | 0.00 | 71 | 1013.7 |
| 20260510090515 | 41 | 0 | 0.0 | 0.0 | 0.00 | 0.11 | 0.00 | 71 | 1013.6 |
| 20260510090032 | 41 | 0 | 0.0 | 0.0 | 0.00 | 0.11 | 0.00 | 70 | 1013.5 |
| 20260510085515 | 41 | 0 | 0.0 | 0.0 | 0.00 | 0.11 | 0.00 | 70 | 1013.4 |
| 20260510085016 | 41 | 0 | 0.0 | 0.9 | 0.00 | 0.11 | 0.00 | 69 | 1013.3 |
| 20260510084545 | 41 | 0 | 0.0 | 1.7 | 0.00 | 0.11 | 0.00 | 69 | 1013.3 |
| 20260510084017 | 42 | 0 | 0.0 | 1.7 | 0.00 | 0.11 | 0.00 | 68 | 1013.3 |
| 20260510083516 | 42 | 0 | 0.0 | 1.7 | 0.00 | 0.11 | 0.00 | 68 | 1013.2 |
| 20260510083030 | 42 | 304 | 0.0 | 1.7 | 0.00 | 0.11 | 0.00 | 68 | 1013.1 |
| 20260510082515 | 42 | 0 | 0.0 | 0.0 | 0.00 | 0.11 | 0.00 | 68 | 1013.0 |
| 20260510082012 | 42 | 0 | 0.0 | 0.0 | 0.00 | 0.11 | 0.00 | 69 | 1012.9 |
| 20260510081535 | 42 | 0 | 0.0 | 0.0 | 0.00 | 0.11 | 0.00 | 68 | 1012.9 |
| 20260510081015 | 42 | 0 | 0.0 | 0.9 | 0.00 | 0.11 | 0.00 | 68 | 1012.8 |
| 20260510080515 | 43 | 0 | 0.0 | 0.9 | 0.00 | 0.11 | 0.00 | 68 | 1012.8 |
| 20260510080030 | 43 | 345 | 0.0 | 0.9 | 0.00 | 0.11 | 0.00 | 67 | 1012.7 |
| 20260510075516 | 43 | 0 | 0.0 | 0.9 | 0.00 | 0.11 | 0.00 | 67 | 1012.6 |
| 20260510075019 | 43 | 0 | 0.0 | 0.0 | 0.00 | 0.11 | 0.00 | 67 | 1012.4 |
| 20260510074538 | 43 | 0 | 0.0 | 0.0 | 0.00 | 0.11 | 0.00 | 67 | 1012.4 |
| 20260510074015 | 43 | 0 | 0.0 | 0.0 | 0.00 | 0.11 | 0.00 | 66 | 1012.3 |
| 20260510073515 | 44 | 0 | 0.0 | 0.9 | 0.00 | 0.11 | 0.00 | 66 | 1012.3 |
| 20260510073045 | 44 | 0 | 0.0 | 0.9 | 0.00 | 0.11 | 0.00 | 65 | 1012.1 |
| 20260510072514 | 44 | 0 | 0.0 | 0.0 | 0.00 | 0.11 | 0.00 | 65 | 1012.0 |
| 20260510072016 | 44 | 0 | 0.0 | 0.0 | 0.00 | 0.11 | 0.00 | 65 | 1012.0 |
| 20260510071532 | 44 | 0 | 0.0 | 0.0 | 0.00 | 0.11 | 0.00 | 64 | 1011.9 |
| 20260510071012 | 44 | 0 | 0.0 | 0.9 | 0.00 | 0.11 | 0.00 | 64 | 1012.0 |
| 20260510070513 | 44 | 0 | 0.0 | 1.7 | 0.00 | 0.11 | 0.00 | 64 | 1011.9 |
| 20260510070035 | 45 | 0 | 0.0 | 1.7 | 0.00 | 0.11 | 0.00 | 64 | 1011.6 |
| 20260510065518 | 45 | 0 | 0.0 | 2.6 | 0.00 | 0.11 | 0.00 | 64 | 1011.6 |
| 20260510065018 | 45 | 0 | 0.0 | 2.6 | 0.00 | 0.11 | 0.00 | 64 | 1011.5 |
| 20260510064530 | 45 | 323 | 0.0 | 1.7 | 0.00 | 0.11 | 0.00 | 64 | 1011.4 |
| 20260510064012 | 45 | 0 | 0.0 | 2.6 | 0.00 | 0.11 | 0.00 | 64 | 1011.4 |
| 20260510063517 | 46 | 0 | 0.0 | 2.6 | 0.00 | 0.11 | 0.00 | 63 | 1011.3 |
| 20260510063030 | 46 | 0 | 0.0 | 2.6 | 0.00 | 0.11 | 0.00 | 63 | 1011.3 |
| 20260510062514 | 46 | 0 | 0.0 | 2.6 | 0.00 | 0.11 | 0.00 | 62 | 1011.3 |
| 20260510062013 | 46 | 316 | 0.0 | 4.3 | 0.00 | 0.11 | 0.00 | 61 | 1011.2 |
| 20260510061531 | 47 | 0 | 0.9 | 4.3 | 0.00 | 0.11 | 0.00 | 61 | 1011.1 |
| 20260510061017 | 47 | 20 | 0.0 | 7.0 | 0.00 | 0.11 | 0.00 | 61 | 1011.1 |
| 20260510060516 | 47 | 303 | 2.6 | 7.8 | 0.00 | 0.11 | 0.00 | 60 | 1011.0 |
| 20260510060038 | 47 | 335 | 1.7 | 7.8 | 0.00 | 0.11 | 0.00 | 60 | 1010.9 |
| 20260510055514 | 48 | 336 | 3.5 | 9.6 | 0.00 | 0.11 | 0.00 | 60 | 1010.9 |
| 20260510055015 | 48 | 6 | 4.3 | 11.3 | 0.00 | 0.11 | 0.00 | 60 | 1010.8 |
| 20260510054531 | 48 | 41 | 5.2 | 11.3 | 0.00 | 0.11 | 0.00 | 60 | 1010.8 |
| 20260510054013 | 48 | 355 | 5.2 | 11.3 | 0.00 | 0.11 | 0.00 | 60 | 1010.7 |
| 20260510053515 | 48 | 327 | 2.6 | 6.1 | 0.00 | 0.11 | 0.00 | 61 | 1010.6 |
| 20260510053032 | 48 | 0 | 0.0 | 2.6 | 0.00 | 0.11 | 0.00 | 62 | 1010.5 |
| 20260510052514 | 48 | 18 | 0.0 | 0.0 | 0.00 | 0.11 | 0.00 | 62 | 1010.5 |
| 20260510052017 | 48 | 0 | 0.0 | 0.0 | 0.00 | 0.11 | 0.00 | 61 | 1010.4 |
| 20260510051530 | 49 | 0 | 0.0 | 0.0 | 0.00 | 0.11 | 0.00 | 60 | 1010.3 |
| 20260510051015 | 49 | 0 | 0.0 | 0.0 | 0.00 | 0.11 | 0.00 | 59 | 1010.3 |
| 20260510050514 | 49 | 0 | 0.0 | 0.0 | 0.00 | 0.11 | 0.00 | 59 | 1010.2 |
| 20260510050031 | 50 | 0 | 0.0 | 0.0 | 0.00 | 0.11 | 0.00 | 58 | 1010.0 |
| 20260510045515 | 50 | 0 | 0.0 | 2.6 | 0.00 | 0.11 | 0.00 | 57 | 1010.1 |
| 20260510045016 | 50 | 0 | 0.0 | 2.6 | 0.00 | 0.11 | 0.00 | 56 | 1010.0 |
| 20260510044530 | 50 | 0 | 0.9 | 5.2 | 0.00 | 0.11 | 0.00 | 55 | 1009.9 |
| 20260510044015 | 51 | 0 | 0.0 | 5.2 | 0.00 | 0.11 | 0.00 | 55 | 1009.8 |
| 20260510043516 | 51 | 342 | 1.7 | 7.0 | 0.00 | 0.11 | 0.00 | 54 | 1009.6 |
| 20260510043031 | 51 | 328 | 1.7 | 7.0 | 0.00 | 0.11 | 0.00 | 55 | 1009.5 |
| 20260510042517 | 51 | 338 | 1.7 | 7.0 | 0.00 | 0.11 | 0.00 | 55 | 1009.4 |
| 20260510042016 | 51 | 356 | 3.5 | 7.0 | 0.00 | 0.11 | 0.00 | 56 | 1009.4 |
| 20260510041534 | 51 | 340 | 2.6 | 6.1 | 0.00 | 0.11 | 0.00 | 56 | 1009.3 |
| 20260510041018 | 51 | 30 | 0.9 | 6.1 | 0.00 | 0.11 | 0.00 | 58 | 1009.3 |
| 20260510040515 | 51 | 3 | 0.9 | 4.3 | 0.00 | 0.11 | 0.00 | 59 | 1009.2 |
| 20260510040030 | 51 | 351 | 0.9 | 3.5 | 0.00 | 0.11 | 0.00 | 58 | 1009.2 |
| 20260510035512 | 52 | 319 | 0.9 | 3.5 | 0.00 | 0.11 | 0.11 | 58 | 1009.2 |
| 20260510035014 | 52 | 342 | 0.9 | 4.3 | 0.00 | 0.11 | 0.11 | 59 | 1009.1 |
| 20260510034532 | 52 | 0 | 0.0 | 4.3 | 0.00 | 0.11 | 0.11 | 59 | 1009.1 |
| 20260510034015 | 52 | 327 | 1.7 | 6.1 | 0.00 | 0.11 | 0.11 | 58 | 1009.0 |
| 20260510033519 | 53 | 316 | 1.7 | 6.1 | 0.00 | 0.11 | 0.11 | 58 | 1008.9 |
| 20260510033030 | 53 | 15 | 2.6 | 7.0 | 0.00 | 0.11 | 0.11 | 57 | 1008.9 |
| 20260510032515 | 53 | 354 | 2.6 | 7.0 | 0.00 | 0.11 | 0.11 | 56 | 1008.9 |
| 20260510032013 | 54 | 28 | 2.6 | 7.0 | 0.00 | 0.11 | 0.11 | 56 | 1008.8 |
| 20260510031535 | 54 | 318 | 1.7 | 8.7 | 0.00 | 0.11 | 0.11 | 55 | 1008.8 |
| 20260510031017 | 54 | 24 | 4.3 | 8.7 | 0.00 | 0.11 | 0.11 | 53 | 1008.8 |
| 20260510030515 | 55 | 16 | 3.5 | 7.8 | 0.00 | 0.11 | 0.11 | 53 | 1008.7 |
| 20260510030035 | 56 | 3 | 2.6 | 7.8 | 0.00 | 0.11 | 0.11 | 51 | 1008.3 |
| 20260510025515 | 56 | 0 | 0.9 | 5.2 | 0.00 | 0.11 | 0.11 | 50 | 1008.2 |
| 20260510025015 | 56 | 9 | 1.7 | 7.8 | 0.00 | 0.11 | 0.11 | 50 | 1008.1 |
| 20260510024534 | 57 | 342 | 1.7 | 7.8 | 0.00 | 0.11 | 0.11 | 49 | 1008.0 |
| 20260510024014 | 57 | 340 | 2.6 | 7.0 | 0.00 | 0.11 | 0.11 | 49 | 1008.0 |
| 20260510023514 | 57 | 317 | 2.6 | 9.6 | 0.00 | 0.11 | 0.11 | 48 | 1008.0 |
| 20260510023030 | 57 | 349 | 2.6 | 9.6 | 0.00 | 0.11 | 0.11 | 48 | 1007.9 |
| 20260510022516 | 57 | 302 | 4.3 | 10.4 | 0.00 | 0.11 | 0.11 | 47 | 1007.8 |
| 20260510022017 | 58 | 304 | 3.5 | 10.4 | 0.00 | 0.11 | 0.11 | 47 | 1007.6 |
| 20260510021534 | 58 | 296 | 2.6 | 8.7 | 0.00 | 0.11 | 0.11 | 47 | 1007.6 |
| 20260510021013 | 58 | 337 | 2.6 | 6.1 | 0.00 | 0.11 | 0.11 | 46 | 1007.5 |
| 20260510020515 | 58 | 321 | 0.9 | 5.2 | 0.00 | 0.11 | 0.11 | 46 | 1007.3 |
| 20260510020030 | 58 | 301 | 1.7 | 6.1 | 0.00 | 0.11 | 0.11 | 46 | 1007.2 |
| 20260510015517 | 58 | 326 | 1.7 | 9.6 | 0.00 | 0.11 | 0.11 | 45 | 1007.0 |
| 20260510015016 | 58 | 309 | 3.5 | 15.6 | 0.00 | 0.11 | 0.11 | 45 | 1006.9 |
| 20260510014529 | 58 | 328 | 6.1 | 15.6 | 0.00 | 0.11 | 0.11 | 44 | 1006.8 |
| 20260510014015 | 59 | 324 | 7.0 | 13.0 | 0.00 | 0.11 | 0.11 | 44 | 1006.7 |
| 20260510013514 | 59 | 308 | 7.0 | 13.0 | 0.00 | 0.11 | 0.11 | 44 | 1006.5 |
| 20260510013032 | 59 | 330 | 3.5 | 11.3 | 0.00 | 0.11 | 0.11 | 45 | 1006.3 |
| 20260510012514 | 60 | 310 | 4.3 | 11.3 | 0.00 | 0.11 | 0.11 | 45 | 1006.0 |
| 20260510012015 | 60 | 315 | 4.3 | 10.4 | 0.00 | 0.11 | 0.11 | 45 | 1005.8 |
| 20260510011531 | 60 | 309 | 0.9 | 7.0 | 0.00 | 0.11 | 0.11 | 49 | 1005.6 |
| 20260510011014 | 60 | 316 | 0.9 | 6.1 | 0.00 | 0.11 | 0.11 | 50 | 1005.4 |
| 20260510010515 | 60 | 0 | 0.9 | 6.1 | 0.00 | 0.11 | 0.11 | 49 | 1005.1 |
| 20260510010032 | 60 | 0 | 0.0 | 0.0 | 0.00 | 0.11 | 0.11 | 54 | 1005.1 |
| 20260510005514 | 60 | 0 | 0.0 | 0.0 | 0.00 | 0.11 | 0.11 | 52 | 1005.1 |
| 20260510005018 | 60 | 0 | 0.0 | 0.0 | 0.00 | 0.11 | 0.11 | 53 | 1005.0 |
| 20260510004529 | 60 | 0 | 0.0 | 3.5 | 0.00 | 0.11 | 0.11 | 51 | 1004.9 |
| 20260510004014 | 61 | 0 | 0.0 | 3.5 | 0.00 | 0.11 | 0.11 | 50 | 1004.9 |
| 20260510003514 | 61 | 0 | 0.0 | 4.3 | 0.00 | 0.11 | 0.11 | 49 | 1004.8 |
| 20260510003031 | 61 | 287 | 0.0 | 6.1 | 0.00 | 0.11 | 0.11 | 48 | 1004.6 |
| 20260510002514 | 61 | 243 | 0.9 | 6.1 | 0.00 | 0.11 | 0.11 | 47 | 1004.8 |
| 20260510002019 | 61 | 283 | 0.0 | 4.3 | 0.00 | 0.11 | 0.11 | 47 | 1004.4 |
| 20260510001531 | 62 | 0 | 0.0 | 7.8 | 0.00 | 0.11 | 0.11 | 47 | 1004.4 |
| 20260510001015 | 62 | 0 | 0.9 | 7.8 | 0.00 | 0.11 | 0.11 | 46 | 1004.3 |
| 20260510000519 | 62 | 0 | 0.9 | 7.8 | 0.00 | 0.11 | 0.11 | 46 | 1004.3 |
| 20260510000035 | 62 | 281 | 0.9 | 7.8 | 0.00 | 0.11 | 0.11 | 46 | 1004.2 |
| 20260509235515 | 62 | 268 | 2.6 | 9.6 | 0.00 | 0.11 | 0.11 | 45 | 1004.3 |
| 20260509235016 | 63 | 249 | 1.7 | 9.6 | 0.00 | 0.11 | 0.11 | 45 | 1004.1 |
| 20260509234538 | 63 | 226 | 1.7 | 9.6 | 0.00 | 0.11 | 0.11 | 45 | 1004.0 |
| 20260509234015 | 63 | 256 | 0.9 | 9.6 | 0.00 | 0.11 | 0.11 | 44 | 1004.0 |